Location: Gdynia
(54.5193°N, 18.5395°E)
Time: 07:16:48
(UTC+01:00)

ISS - Pass Details

Date: 31 January 2019
Orbit: 403 x 411 km, 51.6° (Epoch: 17 February)

Event Time Altitude Azimuth Distance (km) Brightness Sun altitude
Rises 19:47:07 0° 274° (W) 2,341 1.2 -29.6°
Reaches altitude 10° 19:49:18 10° 265° (W) 1,480 -0.2 -29.9°
Enters shadow 19:49:47 13° 262° (W) 1,300 -0.5 -29.9°
